Weather Roundup
Issued by NWS

Home | Current Version | Previous Version | Graphics & Text | Print | Product List | Glossary Off
Versions: 1 2 3 4 5 6 7 8 9 10 11 12 13 14 15 16 17 18 19 20 21 22 23 24 25 26 27 28 29 30 31 32 33 34 35 36 37 38 39 40 41 42 43 44 45 46 47 48 49 50

005
NZUS93 KARX 290810
HRRWXR

CURRENT HOURLY OBSERVATIONS ACROSS
MUCH OF THE UPPER MISSISSIPPI VALLEY
NATIONAL WEATHER SERVICE LA CROSSE WI
300 AM CDT SUN MAY 29 2016


...SOUTHEAST MINNESOTA...


CITY           SKY/WX    TMP DP  RH WIND       PRES   REMARKS
ROCHESTER      CLOUDY    62  61  96 NW9       29.87R
ROCHESTER/MAYO CLOUDY    62  62 100 W8        29.86R
WINONA         CLOUDY    61  59  94 CALM      29.83S
AUSTIN         CLOUDY    61  59  94 NW5       29.87R
ALBERT LEA     CLOUDY    61  61 100 W5        29.88R FOG
DODGE CENTER   DRIZZLE   61  59  94 NW8       29.86S
PRESTON        CLOUDY    61  58  91 SW6       29.87R
OWATONNA       CLOUDY    61  57  88 W6        29.87S
FARIBAULT      CLOUDY    61  61 100 W7        29.86S
$$

...ELSEWHERE IN MINNESOTA...


CITY           SKY/WX    TMP DP  RH WIND       PRES   REMARKS
MINNEAPOLIS    MOCLDY    62  60  93 SW5       29.84S
INTNL FALLS    FOG       57  56  96 N3        29.79F VSB 1/4
DULUTH         LGT RAIN  56  55  97 CALM      29.79F FOG
RED WING       CLOUDY    63  61  94 W5        29.83R FOG
REDWOOD FALLS  CLOUDY    61  57  87 W13       29.88S
MANKATO        MOCLDY    61  57  88 W9        29.87S
WORTHINGTON    MOCLDY    58  57  97 W12       29.95R
FAIRMONT       CLEAR     59  55  88 W10       29.91R
$$

...SOUTHWEST WISCONSIN...


CITY           SKY/WX    TMP DP  RH WIND       PRES   REMARKS
LA CROSSE      MOCLDY    63  60  90 CALM      29.83S
PRAIRIE DU CHI CLOUDY    65  58  79 S6        29.85S
BOSCOBEL       PTCLDY    63  60  90 S3        29.86F
LONE ROCK      CLEAR     64  60  87 CALM      29.87F
PLATTEVILLE    CLEAR     63  61  92 S13       29.89F
FORT MC COY    LGT RAIN  63  62  96 S6        29.85S
CAMP DOUGLAS   CLOUDY    65  65 100 SW9       29.84S
MAUSTON-NEW LI CLOUDY    65  62  89 SW8       29.84S
VIROQUA        PTSUNNY   62  60  94 S10       29.86S
WIS DELLS      CLEAR     63  59  86 SW9       29.87S
$$

...ELSEWHERE IN WISCONSIN...


CITY           SKY/WX    TMP DP  RH WIND       PRES   REMARKS
MILWAUKEE      CLOUDY    66  63  90 SW10      29.91S
MADISON        CLOUDY    66  60  81 S10       29.88F
GREEN BAY      PTCLDY    66  62  87 S7        29.85S
EAU CLAIRE     CLOUDY    60  59  96 S3        29.82S
BLACK RVR FLS  FOG       56  56 100 CALM      29.83S VSB<1/4
MEDFORD        PTCLDY    59  59 100 S6        29.83F
WAUSAU         CLOUDY    65  61  87 SW9       29.82S
WIS RAPIDS     CLOUDY    65  61  87 SW7       29.85F
MARSHFIELD     MOCLDY    63  60  90 S7        29.83F
RICE LAKE      CLOUDY    61  59  94 SW3       29.83S FOG
$$

...NORTHEAST IOWA...


CITY           SKY/WX    TMP DP  RH WIND       PRES   REMARKS
WATERLOO       MOCLDY    62  59  90 SW9       29.88R
DUBUQUE        PTCLDY    62  59  90 SW9       29.90F
DECORAH        CLOUDY    63  61  94 CALM      29.85S
MASON CITY     CLOUDY    61  61 100 W13       29.91R
CHARLES CITY   CLOUDY    63  63 100 W8        29.88R
OELWEIN        CLOUDY    63  61  94 SW13      29.89R
$$

...ELSEWHERE IN IOWA...


CITY           SKY/WX    TMP DP  RH WIND       PRES   REMARKS
DES MOINES     PTCLDY    62  56  80 W9        29.96R
IOWA CITY      CLEAR     65  59  81 S7        29.94R
FORT DODGE     CLOUDY    63  57  82 W9        29.95R
MARSHALLTOWN   CLOUDY    62  60  93 W13       29.92R
CEDAR RAPIDS   CLEAR     63  61  93 SW8       29.91S
$$

...NORTHERN ILLINOIS...


CITY           SKY/WX    TMP DP  RH WIND       PRES   REMARKS
CHICAGO-OHARE  CLOUDY    65  61  87 SW7       29.94S
CHICAGO-MIDWAY MOCLDY    68  57  68 SW8       29.95S
MOLINE         CLEAR     68  58  70 S9        29.93F
ROCKFORD       PTCLDY    67  62  84 S8        29.95F
PEORIA         CLEAR     64  62  93 S3        29.98F
$$

NOTE: "FAIR" INDICATES FEW OR NO CLOUDS BELOW 12,000 FEET WITH NO
SIGNIFICANT WEATHER AND/OR OBSTRUCTIONS TO VISIBILITY. WIND
SPEEDS ARE IN MILES-PER-HOUR.




USA.gov is the U.S. government's official web portal to all federal, state and local government web resources and services.